Weather History for MMCZ - January, 2013

Change the Weather History Date:

Wednesday, January 2, 2013

  Actual Average Record
Temperature  
Mean Temperature 72 °F -  
Max Temperature 80 °F 80 °F 87 °F (1999)
Min Temperature 64 °F 69 °F 57 °F (2011)
Cooling Degree Days 7    
Growing Degree Days 22 (Base 50)    
Moisture  
Dew Point 64 °F    
Average Humidity 80    
Maximum Humidity 94    
Minimum Humidity 61    
Precipitation  
Precipitation 0.00 in - - ()
Sea Level Pressure  
Sea Level Pressure 29.98 in    
Wind  
Wind Speed 2 mph ()    
Max Wind Speed 15 mph    
Max Gust Speed -    
Visibility 7.2 miles    
Events      
Averages and records for this station are not official NWS values.
T = Trace of Precipitation, MM = Missing Value Source: Averaged Metar Reports

Daily Weather History Graph

Daily Weather History Graph

Search for Another Location

Airport or City:

Trip Planner

Search our weather history database for the weather conditions in past years. The results will help you decide how hot, cold, wet, or windy it might be!

Date:

Astronomy

Jan. 02, 2013 Rise Set
Actual Time 6:24 AM CST 5:19 PM CST
Civil Twilight 6:00 AM CST 5:43 PM CST
Nautical Twilight 5:32 AM CST 6:11 PM CST
Astronomical Twilight 5:05 AM CST 6:38 PM CST
Moon 10:06 PM CST (1/2) 9:46 AM CST (1/2)
Length of Visible Light 11h 43m
Length of Day
10h 55m
Waning Gibbous, 75% of the Moon is Illuminated
Jan 2
Waning Gibbous
Jan 4
Last Quarter
Jan 11
New
Jan 18
First Quarter
Jan 26
Full

Hourly Weather History & Observations

Time (CST) Temp. Heat Index Dew Point Humidity Pressure Visibility Wind Dir Wind Speed Gust Speed Precip Events Conditions
12:45 AM 68.0 °F - 60.8 °F 78% 29.97 in 7.0 mi Calm Calm - N/A   Mostly Cloudy
1:40 AM 68.0 °F - 60.8 °F 78% 29.96 in 7.0 mi Calm Calm - N/A   Scattered Clouds
2:45 AM 68.0 °F - 60.8 °F 78% 29.99 in 7.0 mi Calm Calm - N/A   Partly Cloudy
3:40 AM 66.2 °F - 59.0 °F 78% 29.96 in 7.0 mi Calm Calm - N/A   Clear
4:42 AM 64.4 °F - 60.8 °F 88% 29.95 in 7.0 mi Calm Calm - N/A   Clear
5:52 AM 64.4 °F - 60.8 °F 88% 29.94 in 7.0 mi Calm Calm - N/A   Partly Cloudy
6:44 AM 64.4 °F - 60.8 °F 88% 29.98 in 7.0 mi Calm Calm - N/A   Scattered Clouds
7:42 AM 68.0 °F - 66.2 °F 94% 30.00 in 7.0 mi Calm Calm - N/A   Scattered Clouds
8:42 AM 71.6 °F - 69.8 °F 94% 30.05 in 7.0 mi SE 15.0 mph - N/A   Mostly Cloudy
9:46 AM 75.2 °F - 69.8 °F 83% 30.02 in 7.0 mi ESE 5.8 mph - N/A   Mostly Cloudy
10:41 AM 78.8 °F - 69.8 °F 74% 30.01 in 7.0 mi ESE 6.9 mph - N/A   Mostly Cloudy
11:47 AM 80.6 °F 83.2 °F 68.0 °F 65% 29.93 in 8.0 mi SE 5.8 mph - N/A   Scattered Clouds
12:52 PM 80.6 °F 83.2 °F 68.0 °F 65% 29.95 in 8.0 mi SSE 5.8 mph - N/A   Scattered Clouds
1:53 PM 80.6 °F 82.7 °F 66.2 °F 61% 29.93 in 8.0 mi SE 5.8 mph - N/A   Scattered Clouds
2:51 PM 80.6 °F 82.7 °F 66.2 °F 61% 29.96 in 8.0 mi SE 5.8 mph - N/A   Scattered Clouds
3:40 PM 77.0 °F - 66.2 °F 69% 29.94 in 8.0 mi ESE 5.8 mph - N/A   Scattered Clouds
4:50 PM 73.4 °F - 66.2 °F 78% 29.95 in 8.0 mi SE 4.6 mph - N/A   Scattered Clouds
5:45 PM 71.6 °F - 66.2 °F 83% 29.94 in 7.0 mi Calm Calm - N/A   Scattered Clouds
6:46 PM 68.0 °F - 64.4 °F 88% 29.99 in 7.0 mi Calm Calm - N/A   Scattered Clouds
7:43 PM 68.0 °F - 64.4 °F 88% 30.00 in 7.0 mi Calm Calm - N/A   Scattered Clouds
8:45 PM 68.0 °F - 64.4 °F 88% 30.04 in 7.0 mi Calm Calm - N/A   Scattered Clouds
9:44 PM 68.0 °F - 64.4 °F 88% 30.02 in 7.0 mi ESE 3.5 mph - N/A   Partly Cloudy
10:43 PM 66.2 °F - 62.6 °F 88% 30.01 in 7.0 mi ESE 3.5 mph - N/A   Clear
11:50 PM 64.4 °F - 60.8 °F 88% 29.97 in 7.0 mi Calm Calm - N/A   Clear